| time (UTC) | temp F | wind direction | speed knots | gust knots | rain 1hr in | rain 24hr in | rain mn in | humidity % | barometer mb |
| 20260507062835 | 49 | 247 | 0.0 | 0.0 | 0.00 | 0.00 | 0.00 | 90 | 1021.2 |
| 20260507062324 | 50 | 247 | 0.0 | 0.0 | 0.00 | 0.00 | 0.00 | 90 | 1021.2 |
| 20260507061834 | 50 | 247 | 0.0 | 0.0 | 0.00 | 0.00 | 0.00 | 90 | 1021.2 |
| 20260507061323 | 50 | 247 | 0.0 | 0.0 | 0.00 | 0.00 | 0.00 | 90 | 1021.1 |
| 20260507060816 | 50 | 247 | 0.0 | 0.0 | 0.00 | 0.00 | 0.00 | 90 | 1021.1 |
| 20260507060325 | 50 | 247 | 0.0 | 0.0 | 0.00 | 0.00 | 0.00 | 90 | 1021.1 |
| 20260507055835 | 50 | 247 | 0.0 | 0.0 | 0.00 | 0.00 | 0.00 | 89 | 1021.1 |
| 20260507055322 | 50 | 247 | 0.0 | 0.0 | 0.00 | 0.00 | 0.00 | 89 | 1021.1 |
| 20260507054831 | 50 | 247 | 0.0 | 0.0 | 0.00 | 0.00 | 0.00 | 89 | 1021.2 |
| 20260507054320 | 51 | 247 | 0.0 | 0.0 | 0.00 | 0.00 | 0.00 | 89 | 1021.2 |
| 20260507053828 | 51 | 247 | 0.0 | 0.0 | 0.00 | 0.00 | 0.00 | 88 | 1021.2 |
| 20260507053319 | 51 | 247 | 0.0 | 0.0 | 0.00 | 0.00 | 0.00 | 88 | 1021.1 |
| 20260507052828 | 51 | 247 | 0.0 | 0.0 | 0.00 | 0.00 | 0.00 | 88 | 1021.1 |
| 20260507052317 | 51 | 247 | 0.0 | 0.0 | 0.00 | 0.00 | 0.00 | 88 | 1021.1 |
| 20260507051826 | 51 | 247 | 0.0 | 0.0 | 0.00 | 0.00 | 0.00 | 88 | 1021.1 |
| 20260507051317 | 52 | 247 | 0.0 | 0.0 | 0.00 | 0.00 | 0.00 | 88 | 1021.0 |
| 20260507050827 | 52 | 247 | 0.0 | 0.0 | 0.00 | 0.00 | 0.00 | 88 | 1021.1 |
| 20260507050314 | 52 | 247 | 0.0 | 0.0 | 0.00 | 0.00 | 0.00 | 88 | 1021.1 |
| 20260507045826 | 52 | 247 | 0.0 | 0.0 | 0.00 | 0.00 | 0.00 | 87 | 1021.0 |
| 20260507045336 | 52 | 247 | 0.0 | 0.0 | 0.00 | 0.00 | 0.00 | 87 | 1021.0 |
| 20260507044827 | 53 | 247 | 0.0 | 0.0 | 0.00 | 0.00 | 0.00 | 86 | 1021.0 |
| 20260507044315 | 53 | 247 | 0.0 | 0.0 | 0.00 | 0.00 | 0.00 | 86 | 1021.0 |
| 20260507043828 | 53 | 247 | 0.0 | 0.0 | 0.00 | 0.00 | 0.00 | 86 | 1021.0 |
| 20260507043320 | 53 | 247 | 0.0 | 0.0 | 0.00 | 0.00 | 0.00 | 85 | 1020.9 |
| 20260507042813 | 53 | 247 | 0.0 | 0.0 | 0.00 | 0.00 | 0.00 | 85 | 1020.8 |
| 20260507042325 | 54 | 247 | 0.0 | 0.0 | 0.00 | 0.00 | 0.00 | 85 | 1020.7 |
| 20260507041835 | 54 | 247 | 0.0 | 0.0 | 0.00 | 0.00 | 0.00 | 84 | 1020.7 |
| 20260507041323 | 54 | 247 | 0.0 | 0.0 | 0.00 | 0.00 | 0.00 | 84 | 1020.7 |
| 20260507040832 | 54 | 247 | 0.0 | 0.0 | 0.00 | 0.00 | 0.00 | 84 | 1020.6 |
| 20260507040321 | 55 | 247 | 0.0 | 0.0 | 0.00 | 0.00 | 0.00 | 83 | 1020.5 |
| 20260507035831 | 55 | 247 | 0.0 | 0.0 | 0.00 | 0.00 | 0.00 | 83 | 1020.4 |
| 20260507035319 | 55 | 247 | 0.0 | 0.0 | 0.00 | 0.00 | 0.00 | 83 | 1020.3 |
| 20260507034829 | 55 | 247 | 0.0 | 0.0 | 0.00 | 0.00 | 0.00 | 82 | 1020.3 |
| 20260507034319 | 56 | 247 | 0.0 | 0.0 | 0.00 | 0.00 | 0.00 | 82 | 1020.3 |
| 20260507033848 | 56 | 247 | 0.0 | 0.0 | 0.00 | 0.00 | 0.00 | 81 | 1020.3 |
| 20260507033320 | 56 | 247 | 0.0 | 0.0 | 0.00 | 0.00 | 0.00 | 81 | 1020.3 |
| 20260507032829 | 57 | 247 | 0.0 | 0.0 | 0.00 | 0.00 | 0.00 | 80 | 1020.2 |
| 20260507032320 | 57 | 247 | 0.0 | 0.0 | 0.00 | 0.00 | 0.00 | 79 | 1020.2 |
| 20260507031848 | 57 | 247 | 0.0 | 0.0 | 0.00 | 0.00 | 0.00 | 78 | 1020.1 |
| 20260507031316 | 58 | 247 | 0.0 | 0.0 | 0.00 | 0.00 | 0.00 | 79 | 1020.1 |
| 20260507030826 | 58 | 247 | 0.0 | 0.0 | 0.00 | 0.00 | 0.00 | 78 | 1020.1 |
| 20260507030335 | 58 | 247 | 0.0 | 0.9 | 0.00 | 0.00 | 0.00 | 78 | 1020.1 |
| 20260507025844 | 58 | 243 | 0.0 | 0.0 | 0.00 | 0.00 | 0.00 | 77 | 1019.9 |
| 20260507025353 | 59 | 241 | 0.0 | 0.0 | 0.00 | 0.00 | 0.00 | 77 | 1019.9 |
| 20260507024820 | 59 | 243 | 0.0 | 0.0 | 0.00 | 0.00 | 0.00 | 77 | 1019.9 |
| 20260507024330 | 59 | 243 | 0.0 | 0.0 | 0.00 | 0.00 | 0.00 | 76 | 1019.8 |
| 20260507023827 | 59 | 243 | 0.0 | 0.9 | 0.00 | 0.00 | 0.00 | 76 | 1019.9 |
| 20260507023316 | 59 | 243 | 0.0 | 0.0 | 0.00 | 0.00 | 0.00 | 76 | 1019.8 |
| 20260507022847 | 60 | 243 | 0.0 | 1.7 | 0.00 | 0.00 | 0.00 | 76 | 1019.8 |
| 20260507022336 | 60 | 243 | 0.0 | 2.6 | 0.00 | 0.00 | 0.00 | 75 | 1019.9 |
| 20260507021825 | 60 | 243 | 0.0 | 2.6 | 0.00 | 0.00 | 0.00 | 75 | 1019.8 |
| 20260507021355 | 60 | 261 | 0.0 | 0.9 | 0.00 | 0.00 | 0.00 | 75 | 1019.8 |
| 20260507020824 | 60 | 262 | 0.0 | 0.0 | 0.00 | 0.00 | 0.00 | 75 | 1019.8 |
| 20260507020335 | 61 | 219 | 0.0 | 0.9 | 0.00 | 0.00 | 0.00 | 75 | 1019.9 |
| 20260507015825 | 61 | 219 | 0.0 | 1.7 | 0.00 | 0.00 | 0.00 | 74 | 1019.9 |
| 20260507015314 | 61 | 219 | 0.0 | 1.7 | 0.00 | 0.00 | 0.00 | 74 | 1019.9 |
| 20260507014831 | 61 | 206 | 0.0 | 1.7 | 0.00 | 0.00 | 0.00 | 74 | 1019.9 |
| 20260507014321 | 61 | 199 | 0.0 | 0.0 | 0.00 | 0.00 | 0.00 | 74 | 1019.9 |
| 20260507013834 | 61 | 199 | 0.0 | 1.7 | 0.00 | 0.00 | 0.00 | 74 | 1019.8 |
| 20260507013327 | 61 | 199 | 0.0 | 1.7 | 0.00 | 0.00 | 0.00 | 73 | 1019.8 |
| 20260507012824 | 61 | 199 | 0.0 | 0.9 | 0.00 | 0.00 | 0.00 | 73 | 1019.9 |
| 20260507012316 | 62 | 199 | 0.0 | 3.5 | 0.00 | 0.00 | 0.00 | 72 | 1019.9 |
| 20260507011829 | 62 | 283 | 0.0 | 1.7 | 0.00 | 0.00 | 0.00 | 72 | 1019.9 |
| 20260507011320 | 62 | 263 | 0.0 | 1.7 | 0.00 | 0.00 | 0.00 | 72 | 1019.9 |
| 20260507010828 | 62 | 256 | 0.0 | 4.3 | 0.00 | 0.00 | 0.00 | 72 | 1019.9 |
| 20260507010324 | 63 | 241 | 0.9 | 4.3 | 0.00 | 0.00 | 0.00 | 71 | 1020.0 |
| 20260507005834 | 63 | 202 | 0.0 | 2.6 | 0.00 | 0.00 | 0.00 | 71 | 1019.9 |
| 20260507005342 | 63 | 204 | 0.0 | 3.5 | 0.00 | 0.00 | 0.00 | 70 | 1020.0 |
| 20260507004829 | 63 | 219 | 0.9 | 3.5 | 0.00 | 0.00 | 0.00 | 69 | 1019.9 |
| 20260507004323 | 64 | 278 | 0.0 | 3.5 | 0.00 | 0.00 | 0.00 | 70 | 1019.9 |
| 20260507003832 | 64 | 238 | 0.0 | 1.7 | 0.00 | 0.00 | 0.00 | 69 | 1019.8 |
| 20260507003342 | 64 | 234 | 0.0 | 1.7 | 0.00 | 0.00 | 0.00 | 69 | 1019.8 |
| 20260507002830 | 65 | 301 | 0.0 | 6.1 | 0.00 | 0.00 | 0.00 | 68 | 1019.8 |
| 20260507002322 | 65 | 301 | 0.0 | 6.1 | 0.00 | 0.00 | 0.00 | 67 | 1019.7 |
| 20260507001831 | 66 | 156 | 0.0 | 0.9 | 0.00 | 0.00 | 0.00 | 68 | 1019.8 |
| 20260507001320 | 66 | 168 | 0.0 | 3.5 | 0.00 | 0.00 | 0.00 | 66 | 1019.7 |
| 20260507000833 | 66 | 242 | 0.0 | 0.9 | 0.00 | 0.00 | 0.00 | 66 | 1019.8 |
| 20260507000322 | 67 | 229 | 0.0 | 3.5 | 0.00 | 0.00 | 0.00 | 66 | 1019.7 |
| 20260506235830 | 67 | 229 | 0.0 | 3.5 | 0.00 | 0.00 | 0.00 | 66 | 1019.7 |
| 20260506235341 | 67 | 214 | 0.0 | 2.6 | 0.00 | 0.00 | 0.00 | 66 | 1019.7 |
| 20260506234833 | 67 | 171 | 0.0 | 0.9 | 0.00 | 0.00 | 0.00 | 65 | 1019.6 |
| 20260506234326 | 67 | 171 | 0.0 | 1.7 | 0.00 | 0.00 | 0.00 | 66 | 1019.5 |
| 20260506233824 | 67 | 170 | 0.0 | 1.7 | 0.00 | 0.00 | 0.00 | 64 | 1019.7 |
| 20260506233318 | 67 | 81 | 0.0 | 2.6 | 0.00 | 0.00 | 0.00 | 66 | 1019.6 |
| 20260506232831 | 67 | 82 | 0.0 | 2.6 | 0.00 | 0.00 | 0.00 | 65 | 1019.6 |
| 20260506232328 | 68 | 214 | 0.0 | 2.6 | 0.00 | 0.00 | 0.00 | 64 | 1019.6 |
| 20260506231841 | 68 | 185 | 0.0 | 1.7 | 0.00 | 0.00 | 0.00 | 66 | 1019.6 |
| 20260506231335 | 68 | 180 | 0.0 | 3.5 | 0.00 | 0.00 | 0.00 | 65 | 1019.7 |
| 20260506230827 | 69 | 180 | 0.9 | 3.5 | 0.00 | 0.00 | 0.00 | 64 | 1019.7 |
| 20260506230320 | 69 | 233 | 0.0 | 1.7 | 0.00 | 0.00 | 0.00 | 63 | 1019.8 |
| 20260506225833 | 69 | 225 | 0.0 | 1.7 | 0.00 | 0.00 | 0.00 | 62 | 1019.7 |
| 20260506225346 | 70 | 238 | 0.0 | 3.5 | 0.00 | 0.00 | 0.00 | 64 | 1019.7 |
| 20260506224818 | 70 | 241 | 0.9 | 3.5 | 0.00 | 0.00 | 0.00 | 62 | 1019.7 |
| 20260506224331 | 70 | 239 | 0.0 | 1.7 | 0.00 | 0.00 | 0.00 | 62 | 1019.8 |
| 20260506223832 | 70 | 233 | 0.0 | 2.6 | 0.00 | 0.00 | 0.00 | 64 | 1019.8 |
| 20260506223326 | 70 | 191 | 0.0 | 2.6 | 0.00 | 0.00 | 0.00 | 62 | 1020.0 |
| 20260506222819 | 70 | 163 | 0.0 | 1.7 | 0.00 | 0.00 | 0.00 | 64 | 1019.9 |
| 20260506222355 | 70 | 144 | 0.0 | 1.7 | 0.00 | 0.00 | 0.00 | 62 | 1019.9 |
| 20260506221843 | 71 | 209 | 0.0 | 1.7 | 0.00 | 0.00 | 0.00 | 59 | 1019.9 |
| 20260506221356 | 71 | 207 | 0.0 | 2.6 | 0.00 | 0.00 | 0.00 | 61 | 1019.9 |
| 20260506220845 | 72 | 220 | 0.0 | 2.6 | 0.00 | 0.00 | 0.00 | 58 | 1019.9 |
| 20260506220333 | 72 | 229 | 0.0 | 1.7 | 0.00 | 0.00 | 0.00 | 60 | 1019.9 |
| 20260506215822 | 72 | 267 | 0.0 | 1.7 | 0.00 | 0.00 | 0.00 | 61 | 1020.0 |
| 20260506215330 | 71 | 225 | 0.0 | 0.9 | 0.00 | 0.00 | 0.00 | 64 | 1019.9 |
| 20260506214823 | 71 | 207 | 0.0 | 0.0 | 0.00 | 0.00 | 0.00 | 61 | 1019.9 |
| 20260506214353 | 72 | 208 | 0.0 | 3.5 | 0.00 | 0.00 | 0.00 | 61 | 1019.8 |
| 20260506213825 | 71 | 208 | 0.9 | 3.5 | 0.00 | 0.00 | 0.00 | 64 | 1019.9 |
| 20260506213334 | 70 | 216 | 0.0 | 3.5 | 0.00 | 0.00 | 0.00 | 65 | 1019.9 |
| 20260506212824 | 70 | 216 | 0.0 | 3.5 | 0.00 | 0.00 | 0.00 | 63 | 1019.9 |
| 20260506212336 | 70 | 235 | 0.0 | 2.6 | 0.00 | 0.00 | 0.00 | 64 | 1020.1 |
| 20260506211828 | 69 | 341 | 0.0 | 2.6 | 0.00 | 0.00 | 0.00 | 64 | 1020.1 |
| 20260506211321 | 70 | 256 | 0.0 | 0.0 | 0.00 | 0.00 | 0.00 | 66 | 1019.9 |
| 20260506210830 | 69 | 256 | 0.0 | 0.9 | 0.00 | 0.00 | 0.00 | 66 | 1020.1 |
| 20260506210319 | 69 | 256 | 0.0 | 0.9 | 0.00 | 0.00 | 0.00 | 66 | 1020.2 |
| 20260506205832 | 69 | 256 | 0.0 | 0.9 | 0.00 | 0.00 | 0.00 | 65 | 1020.2 |
| 20260506205323 | 68 | 254 | 0.0 | 0.9 | 0.00 | 0.00 | 0.00 | 68 | 1020.2 |
| 20260506204833 | 67 | 254 | 0.0 | 1.7 | 0.00 | 0.00 | 0.00 | 66 | 1020.3 |
| 20260506204321 | 66 | 131 | 0.0 | 0.9 | 0.00 | 0.00 | 0.00 | 71 | 1020.3 |
| 20260506203813 | 66 | 130 | 0.0 | 0.9 | 0.00 | 0.00 | 0.00 | 68 | 1020.4 |
| 20260506203346 | 65 | 130 | 0.0 | 0.0 | 0.00 | 0.00 | 0.00 | 72 | 1020.5 |
| 20260506202835 | 64 | 130 | 0.0 | 0.0 | 0.00 | 0.00 | 0.00 | 71 | 1020.4 |
| 20260506202323 | 65 | 130 | 0.0 | 2.6 | 0.00 | 0.00 | 0.00 | 71 | 1020.5 |
| 20260506201833 | 65 | 130 | 0.0 | 2.6 | 0.00 | 0.00 | 0.00 | 69 | 1020.5 |
| 20260506201330 | 65 | 211 | 0.0 | 1.7 | 0.00 | 0.00 | 0.00 | 68 | 1020.5 |
| 20260506200823 | 66 | 210 | 0.0 | 1.7 | 0.00 | 0.00 | 0.00 | 68 | 1020.5 |
| 20260506200316 | 67 | 233 | 0.0 | 0.0 | 0.00 | 0.00 | 0.00 | 69 | 1020.4 |
| 20260506195829 | 66 | 239 | 0.0 | 0.0 | 0.00 | 0.00 | 0.00 | 69 | 1020.5 |
| 20260506195322 | 66 | 226 | 0.0 | 1.7 | 0.00 | 0.00 | 0.00 | 69 | 1020.5 |
| 20260506194816 | 65 | 225 | 0.0 | 0.9 | 0.00 | 0.00 | 0.00 | 68 | 1020.5 |
| 20260506194328 | 65 | 230 | 0.0 | 1.7 | 0.00 | 0.00 | 0.00 | 70 | 1020.5 |
| 20260506193822 | 64 | 226 | 0.0 | 1.7 | 0.00 | 0.00 | 0.00 | 71 | 1020.5 |
| 20260506193319 | 64 | 157 | 0.0 | 1.7 | 0.00 | 0.00 | 0.00 | 72 | 1020.5 |
| 20260506192833 | 64 | 86 | 0.0 | 1.7 | 0.00 | 0.00 | 0.00 | 71 | 1020.4 |
| 20260506192326 | 64 | 86 | 0.0 | 1.7 | 0.00 | 0.00 | 0.00 | 70 | 1020.5 |
| 20260506191838 | 63 | 200 | 0.0 | 2.6 | 0.00 | 0.00 | 0.00 | 73 | 1020.5 |
| 20260506191347 | 63 | 208 | 0.0 | 2.6 | 0.00 | 0.00 | 0.00 | 72 | 1020.4 |
| 20260506190836 | 63 | 195 | 0.0 | 0.9 | 0.00 | 0.00 | 0.00 | 74 | 1020.4 |
| 20260506190324 | 62 | 101 | 0.0 | 1.7 | 0.00 | 0.00 | 0.00 | 75 | 1020.5 |
| 20260506185820 | 62 | 201 | 0.0 | 1.7 | 0.00 | 0.00 | 0.00 | 74 | 1020.6 |
| 20260506185316 | 62 | 212 | 0.0 | 0.0 | 0.00 | 0.00 | 0.00 | 76 | 1020.6 |
| 20260506184829 | 61 | 212 | 0.0 | 0.9 | 0.00 | 0.00 | 0.00 | 75 | 1020.6 |
| 20260506184327 | 61 | 212 | 0.0 | 2.6 | 0.00 | 0.00 | 0.00 | 77 | 1020.5 |
| 20260506183821 | 61 | 158 | 0.0 | 2.6 | 0.00 | 0.00 | 0.00 | 75 | 1020.6 |
| 20260506183334 | 61 | 166 | 0.0 | 2.6 | 0.00 | 0.00 | 0.00 | 76 | 1020.7 |
| 20260506182848 | 61 | 101 | 0.9 | 2.6 | 0.00 | 0.00 | 0.00 | 77 | 1020.8 |
| 20260506182320 | 60 | 220 | 0.0 | 4.3 | 0.00 | 0.00 | 0.00 | 75 | 1020.8 |
| 20260506181833 | 61 | 223 | 0.9 | 6.1 | 0.00 | 0.00 | 0.00 | 77 | 1020.7 |
| 20260506181327 | 61 | 154 | 0.9 | 6.1 | 0.00 | 0.00 | 0.00 | 76 | 1020.8 |
| 20260506180820 | 60 | 193 | 0.0 | 0.0 | 0.00 | 0.00 | 0.00 | 79 | 1020.8 |
| 20260506180318 | 60 | 221 | 0.0 | 0.0 | 0.00 | 0.00 | 0.00 | 81 | 1020.8 |
| 20260506175829 | 60 | 221 | 0.0 | 2.6 | 0.00 | 0.00 | 0.00 | 77 | 1020.7 |
| 20260506175323 | 60 | 221 | 0.0 | 2.6 | 0.00 | 0.00 | 0.00 | 78 | 1020.7 |
| 20260506174817 | 60 | 232 | 0.0 | 2.6 | 0.00 | 0.00 | 0.00 | 80 | 1020.6 |
| 20260506174330 | 59 | 246 | 0.0 | 2.6 | 0.00 | 0.00 | 0.00 | 79 | 1020.5 |
| 20260506173843 | 59 | 244 | 0.9 | 2.6 | 0.00 | 0.00 | 0.00 | 79 | 1020.5 |
| 20260506173335 | 59 | 251 | 0.0 | 0.9 | 0.00 | 0.00 | 0.00 | 79 | 1020.4 |
| 20260506172828 | 59 | 219 | 0.0 | 0.9 | 0.00 | 0.00 | 0.00 | 80 | 1020.4 |
| 20260506172324 | 58 | 219 | 0.0 | 0.0 | 0.00 | 0.00 | 0.00 | 81 | 1020.5 |
| 20260506171822 | 58 | 219 | 0.0 | 0.0 | 0.00 | 0.00 | 0.00 | 81 | 1020.7 |
| 20260506171332 | 58 | 220 | 0.0 | 0.0 | 0.00 | 0.00 | 0.00 | 83 | 1020.8 |
| 20260506170821 | 58 | 220 | 0.0 | 0.9 | 0.00 | 0.00 | 0.00 | 82 | 1020.7 |
| 20260506170333 | 58 | 220 | 0.0 | 0.9 | 0.00 | 0.00 | 0.00 | 84 | 1020.6 |
| 20260506165821 | 57 | 220 | 0.0 | 0.9 | 0.00 | 0.00 | 0.00 | 86 | 1020.5 |
| 20260506165331 | 57 | 220 | 0.0 | 0.9 | 0.00 | 0.00 | 0.00 | 85 | 1020.4 |
| 20260506164820 | 57 | 216 | 0.0 | 0.0 | 0.00 | 0.00 | 0.00 | 84 | 1020.6 |
| 20260506164329 | 57 | 216 | 0.0 | 0.0 | 0.00 | 0.00 | 0.00 | 84 | 1020.6 |
| 20260506163818 | 56 | 216 | 0.0 | 0.0 | 0.00 | 0.00 | 0.00 | 85 | 1020.8 |
| 20260506163332 | 56 | 216 | 0.0 | 0.0 | 0.00 | 0.00 | 0.00 | 85 | 1020.8 |
| 20260506162820 | 56 | 216 | 0.0 | 0.0 | 0.00 | 0.00 | 0.00 | 86 | 1020.8 |
| 20260506162329 | 56 | 216 | 0.0 | 0.0 | 0.00 | 0.00 | 0.00 | 86 | 1020.7 |
| 20260506161819 | 56 | 216 | 0.0 | 0.0 | 0.00 | 0.00 | 0.00 | 87 | 1020.6 |
| 20260506161328 | 55 | 216 | 0.0 | 0.0 | 0.00 | 0.00 | 0.00 | 86 | 1020.6 |
| 20260506160820 | 55 | 216 | 0.0 | 0.0 | 0.00 | 0.00 | 0.00 | 87 | 1020.5 |
| 20260506160330 | 55 | 216 | 0.0 | 1.7 | 0.00 | 0.00 | 0.00 | 87 | 1020.4 |
| 20260506155818 | 55 | 217 | 0.0 | 0.9 | 0.00 | 0.00 | 0.00 | 87 | 1020.3 |
| 20260506155329 | 54 | 206 | 0.0 | 0.0 | 0.00 | 0.00 | 0.00 | 88 | 1020.3 |
| 20260506154821 | 54 | 206 | 0.0 | 0.9 | 0.00 | 0.00 | 0.00 | 89 | 1020.1 |
| 20260506154333 | 54 | 206 | 0.0 | 1.7 | 0.00 | 0.00 | 0.00 | 89 | 1020.2 |
| 20260506153823 | 53 | 206 | 0.0 | 1.7 | 0.00 | 0.00 | 0.00 | 90 | 1020.3 |
| 20260506153354 | 53 | 191 | 0.0 | 0.0 | 0.00 | 0.00 | 0.00 | 90 | 1020.4 |
| 20260506152822 | 53 | 191 | 0.0 | 0.0 | 0.00 | 0.00 | 0.00 | 90 | 1020.5 |
| 20260506152335 | 53 | 191 | 0.0 | 0.0 | 0.00 | 0.00 | 0.00 | 90 | 1020.6 |
| 20260506151826 | 53 | 191 | 0.0 | 0.0 | 0.00 | 0.00 | 0.00 | 91 | 1020.7 |
| 20260506151316 | 53 | 191 | 0.0 | 0.0 | 0.00 | 0.00 | 0.00 | 92 | 1020.7 |
| 20260506150826 | 53 | 191 | 0.0 | 0.0 | 0.00 | 0.00 | 0.00 | 92 | 1020.7 |
| 20260506150317 | 53 | 191 | 0.0 | 0.0 | 0.00 | 0.00 | 0.00 | 92 | 1020.6 |
| 20260506145827 | 53 | 191 | 0.0 | 0.0 | 0.00 | 0.00 | 0.00 | 92 | 1020.7 |
| 20260506145320 | 53 | 191 | 0.0 | 0.0 | 0.00 | 0.00 | 0.00 | 92 | 1021.0 |
| 20260506144829 | 53 | 191 | 0.0 | 0.0 | 0.00 | 0.00 | 0.00 | 92 | 1020.9 |
| 20260506144323 | 52 | 191 | 0.0 | 0.0 | 0.00 | 0.00 | 0.00 | 92 | 1020.7 |
| 20260506143831 | 52 | 191 | 0.0 | 0.0 | 0.00 | 0.00 | 0.00 | 92 | 1020.7 |
| 20260506143320 | 52 | 191 | 0.0 | 0.0 | 0.00 | 0.00 | 0.00 | 92 | 1020.6 |
| 20260506142829 | 52 | 191 | 0.0 | 0.0 | 0.00 | 0.00 | 0.00 | 92 | 1020.2 |
| 20260506142319 | 52 | 191 | 0.0 | 0.0 | 0.00 | 0.00 | 0.00 | 93 | 1020.2 |
| 20260506141848 | 52 | 191 | 0.0 | 0.0 | 0.00 | 0.00 | 0.00 | 93 | 1020.2 |
| 20260506141341 | 52 | 191 | 0.0 | 0.0 | 0.00 | 0.00 | 0.00 | 93 | 1020.0 |
| 20260506140828 | 52 | 191 | 0.0 | 0.0 | 0.00 | 0.00 | 0.00 | 93 | 1019.7 |
| 20260506140321 | 52 | 191 | 0.0 | 0.0 | 0.00 | 0.00 | 0.00 | 92 | 1019.9 |
| 20260506135831 | 52 | 191 | 0.0 | 0.0 | 0.00 | 0.00 | 0.00 | 92 | 1019.8 |
| 20260506135321 | 52 | 191 | 0.0 | 0.0 | 0.00 | 0.00 | 0.00 | 92 | 1019.6 |
| 20260506134832 | 52 | 191 | 0.0 | 0.0 | 0.00 | 0.00 | 0.00 | 92 | 1019.7 |
| 20260506134322 | 52 | 191 | 0.0 | 0.9 | 0.00 | 0.00 | 0.00 | 93 | 1019.6 |
| 20260506133832 | 52 | 191 | 0.0 | 0.9 | 0.00 | 0.00 | 0.00 | 93 | 1019.6 |
| 20260506133322 | 52 | 180 | 0.0 | 0.0 | 0.00 | 0.00 | 0.00 | 93 | 1019.6 |
| 20260506132831 | 52 | 180 | 0.0 | 0.0 | 0.00 | 0.00 | 0.00 | 94 | 1019.7 |
| 20260506132340 | 52 | 180 | 0.0 | 0.0 | 0.00 | 0.00 | 0.00 | 94 | 1019.6 |
| 20260506131828 | 52 | 180 | 0.0 | 0.0 | 0.00 | 0.00 | 0.00 | 93 | 1019.6 |
| 20260506131357 | 52 | 180 | 0.0 | 0.0 | 0.00 | 0.00 | 0.00 | 93 | 1019.5 |
| 20260506130844 | 52 | 180 | 0.0 | 0.0 | 0.00 | 0.00 | 0.00 | 93 | 1019.6 |
| 20260506130318 | 52 | 180 | 0.0 | 0.0 | 0.00 | 0.00 | 0.00 | 93 | 1019.5 |
| 20260506125829 | 52 | 180 | 0.0 | 0.0 | 0.00 | 0.00 | 0.00 | 94 | 1019.5 |
| 20260506125338 | 52 | 180 | 0.0 | 0.0 | 0.00 | 0.00 | 0.00 | 94 | 1019.5 |
| 20260506124826 | 52 | 180 | 0.0 | 0.0 | 0.00 | 0.00 | 0.00 | 94 | 1019.4 |
| 20260506124335 | 52 | 180 | 0.0 | 0.0 | 0.00 | 0.00 | 0.00 | 94 | 1019.3 |
| 20260506123824 | 52 | 180 | 0.0 | 0.0 | 0.00 | 0.00 | 0.00 | 94 | 1019.2 |
| 20260506123334 | 52 | 175 | 0.0 | 0.0 | 0.00 | 0.00 | 0.00 | 94 | 1019.3 |
| 20260506122823 | 52 | 175 | 0.0 | 0.0 | 0.00 | 0.00 | 0.00 | 94 | 1019.3 |
| 20260506122333 | 52 | 175 | 0.0 | 0.0 | 0.00 | 0.00 | 0.00 | 94 | 1019.5 |
| 20260506121826 | 52 | 175 | 0.0 | 0.0 | 0.00 | 0.00 | 0.00 | 94 | 1019.4 |
| 20260506121334 | 52 | 175 | 0.0 | 0.0 | 0.00 | 0.00 | 0.00 | 94 | 1019.4 |
| 20260506120824 | 52 | 175 | 0.0 | 0.0 | 0.00 | 0.00 | 0.00 | 94 | 1019.3 |
| 20260506120332 | 52 | 175 | 0.0 | 0.0 | 0.00 | 0.00 | 0.00 | 94 | 1019.2 |
| 20260506115824 | 52 | 175 | 0.0 | 0.0 | 0.00 | 0.00 | 0.00 | 94 | 1019.3 |
| 20260506115334 | 52 | 175 | 0.0 | 0.0 | 0.00 | 0.00 | 0.00 | 94 | 1019.2 |
| 20260506114823 | 52 | 175 | 0.0 | 0.0 | 0.00 | 0.00 | 0.00 | 94 | 1019.2 |
| 20260506114353 | 52 | 175 | 0.0 | 0.0 | 0.00 | 0.00 | 0.00 | 94 | 1019.2 |
| 20260506113820 | 52 | 175 | 0.0 | 0.0 | 0.00 | 0.00 | 0.00 | 94 | 1019.2 |
| 20260506113331 | 52 | 175 | 0.0 | 0.0 | 0.00 | 0.00 | 0.00 | 94 | 1019.0 |
| 20260506112824 | 52 | 175 | 0.0 | 0.0 | 0.00 | 0.00 | 0.00 | 94 | 1018.7 |
| 20260506112332 | 52 | 175 | 0.0 | 0.0 | 0.00 | 0.00 | 0.00 | 94 | 1018.8 |
| 20260506111842 | 52 | 175 | 0.0 | 0.0 | 0.00 | 0.00 | 0.00 | 94 | 1018.8 |
| 20260506111329 | 52 | 175 | 0.0 | 0.0 | 0.00 | 0.00 | 0.00 | 94 | 1018.8 |
| 20260506110819 | 52 | 175 | 0.0 | 0.0 | 0.00 | 0.00 | 0.00 | 94 | 1018.7 |
| 20260506110328 | 52 | 175 | 0.0 | 0.0 | 0.00 | 0.00 | 0.00 | 94 | 1018.7 |
| 20260506105817 | 52 | 175 | 0.0 | 0.0 | 0.00 | 0.00 | 0.00 | 94 | 1018.6 |
| 20260506105329 | 52 | 175 | 0.0 | 0.0 | 0.00 | 0.00 | 0.00 | 94 | 1018.5 |
| 20260506104818 | 52 | 175 | 0.0 | 0.0 | 0.00 | 0.00 | 0.00 | 94 | 1018.4 |
| 20260506104328 | 52 | 175 | 0.0 | 0.0 | 0.00 | 0.00 | 0.00 | 94 | 1018.3 |
| 20260506103824 | 52 | 175 | 0.0 | 0.0 | 0.00 | 0.00 | 0.00 | 94 | 1018.2 |
| 20260506103353 | 52 | 175 | 0.0 | 0.0 | 0.00 | 0.00 | 0.00 | 94 | 1018.3 |
| 20260506102821 | 52 | 175 | 0.0 | 0.0 | 0.00 | 0.00 | 0.00 | 94 | 1018.2 |
| 20260506102331 | 52 | 175 | 0.0 | 0.0 | 0.00 | 0.00 | 0.00 | 94 | 1018.2 |
| 20260506101820 | 52 | 175 | 0.0 | 0.0 | 0.00 | 0.00 | 0.00 | 94 | 1018.3 |
| 20260506101354 | 52 | 175 | 0.0 | 0.0 | 0.00 | 0.00 | 0.00 | 94 | 1018.2 |
| 20260506100843 | 52 | 175 | 0.0 | 0.0 | 0.00 | 0.00 | 0.00 | 94 | 1018.1 |
| 20260506100331 | 52 | 175 | 0.0 | 0.0 | 0.00 | 0.00 | 0.00 | 94 | 1018.0 |
| 20260506095820 | 52 | 175 | 0.0 | 0.0 | 0.00 | 0.00 | 0.00 | 94 | 1018.0 |
| 20260506095330 | 51 | 175 | 0.0 | 0.0 | 0.00 | 0.00 | 0.00 | 94 | 1018.0 |
| 20260506094819 | 51 | 175 | 0.0 | 0.0 | 0.00 | 0.00 | 0.00 | 94 | 1017.9 |
| 20260506094316 | 51 | 175 | 0.0 | 0.0 | 0.00 | 0.00 | 0.00 | 94 | 1017.9 |
| 20260506093827 | 51 | 175 | 0.0 | 0.0 | 0.00 | 0.00 | 0.00 | 93 | 1017.9 |
| 20260506093315 | 51 | 175 | 0.0 | 0.0 | 0.00 | 0.00 | 0.00 | 93 | 1017.7 |
| 20260506092828 | 51 | 175 | 0.0 | 0.0 | 0.00 | 0.00 | 0.00 | 93 | 1017.6 |
| 20260506092316 | 51 | 175 | 0.0 | 0.0 | 0.00 | 0.00 | 0.00 | 92 | 1017.6 |
| 20260506091846 | 51 | 175 | 0.0 | 0.0 | 0.00 | 0.00 | 0.00 | 92 | 1017.6 |
| 20260506091335 | 51 | 175 | 0.0 | 0.0 | 0.00 | 0.00 | 0.00 | 92 | 1017.6 |
| 20260506090825 | 51 | 175 | 0.0 | 0.0 | 0.00 | 0.00 | 0.00 | 92 | 1017.6 |
| 20260506090335 | 51 | 175 | 0.0 | 0.0 | 0.00 | 0.00 | 0.00 | 91 | 1017.5 |
| 20260506085828 | 51 | 175 | 0.0 | 0.0 | 0.00 | 0.00 | 0.00 | 91 | 1017.5 |
| 20260506085316 | 52 | 175 | 0.0 | 0.0 | 0.00 | 0.00 | 0.00 | 91 | 1017.5 |
| 20260506084846 | 52 | 175 | 0.0 | 0.0 | 0.00 | 0.00 | 0.00 | 91 | 1017.5 |
| 20260506084334 | 52 | 175 | 0.0 | 0.0 | 0.00 | 0.00 | 0.00 | 91 | 1017.5 |
| 20260506083822 | 52 | 175 | 0.0 | 0.0 | 0.00 | 0.00 | 0.00 | 92 | 1017.5 |
| 20260506083334 | 52 | 175 | 0.0 | 0.0 | 0.00 | 0.00 | 0.00 | 91 | 1017.5 |
| 20260506082823 | 52 | 175 | 0.0 | 0.0 | 0.00 | 0.00 | 0.00 | 91 | 1017.5 |
| 20260506082354 | 52 | 175 | 0.0 | 0.0 | 0.00 | 0.00 | 0.00 | 91 | 1017.5 |
| 20260506081822 | 53 | 175 | 0.0 | 0.0 | 0.00 | 0.00 | 0.00 | 91 | 1017.5 |
| 20260506081331 | 53 | 175 | 0.0 | 0.0 | 0.00 | 0.00 | 0.00 | 91 | 1017.5 |
| 20260506080822 | 53 | 175 | 0.0 | 0.0 | 0.00 | 0.00 | 0.00 | 91 | 1017.5 |
| 20260506080330 | 53 | 175 | 0.0 | 0.0 | 0.00 | 0.00 | 0.00 | 91 | 1017.5 |
| 20260506073327 | 54 | 175 | 0.0 | 0.0 | 0.00 | 0.00 | 0.00 | 91 | 1017.4 |
| 20260506072816 | 54 | 175 | 0.0 | 0.0 | 0.00 | 0.00 | 0.00 | 90 | 1017.5 |
| 20260506072346 | 54 | 175 | 0.0 | 0.0 | 0.00 | 0.00 | 0.00 | 90 | 1017.4 |
| 20260506071855 | 54 | 175 | 0.0 | 0.0 | 0.00 | 0.00 | 0.00 | 90 | 1017.4 |
| 20260506071322 | 54 | 175 | 0.0 | 0.0 | 0.00 | 0.00 | 0.00 | 90 | 1017.4 |
| 20260506070832 | 54 | 175 | 0.0 | 0.0 | 0.00 | 0.00 | 0.00 | 90 | 1017.4 |
| 20260506070320 | 54 | 175 | 0.0 | 0.0 | 0.00 | 0.00 | 0.00 | 89 | 1017.3 |